Tracking 19176 objects as of 27-May-2018
HD Live streaming from Space Station
objects crossing your sky now

FENGYUN 1C DEB

Track FENGYUN 1C DEB now!
10-day predictions


NORAD ID: 30291
Int'l Code: 1999-025ZC
Perigee: 703.5 km
Apogee: 975.3 km
Inclination: 97.2 °
Period: 101.6 minutes
Semi major axis: 7210 km
RCS: 0.0203 m2 (small)
Launch date: May 10, 1999
Source: People's Republic of China (PRC)
Launch site: Taiyaun Space Center, China (TSC)

Note: This is SATELLITE DEBRIS
aabbcc
Your satellite tracking list
Your tracking list is empty




NASA's NSSDC Master Catalog

Two Line Element Set (TLE):
1 30291U 99025ZC  18146.91012064 +.00001042 +00000-0 +44001-3 0  9992
2 30291 097.2483 112.5389 0188457 082.2035 336.9922 14.17962363584140
Source of the keplerian elements: AFSPC